VAC chart of SBNV
Satellite view of SBNV
image banner adimage banner adimage banner ad
image banner ad

SBNV - AERÓDROMO NACIONAL DE AVIAÇÃO

Located in GOIÂNIA, Brazil

ICAO - , IATA -

Data provided by Airmate  

General information

Coordinates: S16°37'32" W49°20'58"
Elevation is 2726 feet MSL.
Magnetic variation is -21° East
View others Airports in Goiás

Operational data

Special qualification required
Current time UTC:
Current local time:
Weather at : SBGO - Santa Genoveva Airport ( 14 km )
METAR: SBGO 180800Z 00000KT CAVOK 20/08 Q1017
TAF: TAF SBGO 180120Z 1806/1906 07010KT CAVOK TN23/1810Z TX35/1818Z RMK PGN
View NOTAMs / SUP AIP / TFR affecting this airport [VIEW]
Communications frequencies: [VIEW]

Runways:

Airport contact information

Address: GOIÂNIA Brazil

Satellite view of SBNV